Time,TemperatureF,DewpointF,PressureIn,WindDirection,WindDirectionDegrees,WindSpeedMPH,WindSpeedGustMPH,Humidity,HourlyPrecipIn,Conditions,Clouds,dailyrainin,SoftwareType,DateUTC
2013-08-13 00:01:00,85.1,36.9,29.96,ENE,70,0.0,3.0,18,0.00,,---,0.00,VWS V14.01,2013-08-13 07:01:00,
2013-08-13 00:06:00,84.8,36.6,29.96,East,84,0.0,1.0,18,0.00,,---,0.00,VWS V14.01,2013-08-13 07:06:00,
2013-08-13 00:11:00,84.4,36.3,29.97,ENE,77,0.0,3.0,18,0.00,,---,0.00,VWS V14.01,2013-08-13 07:11:00,
2013-08-13 00:16:00,84.0,37.3,29.97,East,96,1.0,1.0,19,0.00,,---,0.00,VWS V14.01,2013-08-13 07:16:00,
2013-08-13 00:21:00,83.7,37.1,29.97,ENE,71,3.0,3.0,19,0.00,,---,0.00,VWS V14.01,2013-08-13 07:21:00,
2013-08-13 00:26:00,83.6,37.0,29.97,East,94,0.0,1.0,19,0.00,,---,0.00,VWS V14.01,2013-08-13 07:26:00,
2013-08-13 00:31:00,83.5,36.9,29.97,East,88,0.0,4.0,19,0.00,,---,0.00,VWS V14.01,2013-08-13 07:31:00,
2013-08-13 00:36:00,83.5,36.9,29.96,East,92,0.0,3.0,19,0.00,,---,0.00,VWS V14.01,2013-08-13 07:36:00,
2013-08-13 00:41:00,83.6,37.0,29.97,East,90,0.0,1.0,19,0.00,,---,0.00,VWS V14.01,2013-08-13 07:41:00,
2013-08-13 00:46:00,83.4,36.9,29.97,East,98,0.0,1.0,19,0.00,,---,0.00,VWS V14.01,2013-08-13 07:46:00,
2013-08-13 00:51:00,83.1,36.6,29.97,East,95,0.0,1.0,19,0.00,,---,0.00,VWS V14.01,2013-08-13 07:51:00,
2013-08-13 00:56:00,82.9,36.5,29.97,East,92,0.0,0.0,19,0.00,,---,0.00,VWS V14.01,2013-08-13 07:56:00,
2013-08-13 01:01:00,82.5,36.1,29.97,East,88,0.0,1.0,19,0.00,,---,0.00,VWS V14.01,2013-08-13 08:01:00,
2013-08-13 01:06:00,82.0,37.0,29.97,East,88,0.0,0.0,20,0.00,,---,0.00,VWS V14.01,2013-08-13 08:06:00,
2013-08-13 01:11:00,81.6,36.7,29.97,East,88,0.0,0.0,20,0.00,,---,0.00,VWS V14.01,2013-08-13 08:11:00,
2013-08-13 01:16:00,81.3,37.7,29.97,East,88,0.0,0.0,21,0.00,,---,0.00,VWS V14.01,2013-08-13 08:16:00,
2013-08-13 01:21:00,81.1,37.5,29.97,East,85,0.0,0.0,21,0.00,,---,0.00,VWS V14.01,2013-08-13 08:21:00,
2013-08-13 01:26:00,81.0,37.4,29.97,East,85,0.0,0.0,21,0.00,,---,0.00,VWS V14.01,2013-08-13 08:26:00,
2013-08-13 01:31:00,80.8,39.6,29.97,East,85,0.0,0.0,23,0.00,,---,0.00,VWS V14.01,2013-08-13 08:31:00,
2013-08-13 01:36:00,80.4,39.2,29.97,East,85,0.0,0.0,23,0.00,,---,0.00,VWS V14.01,2013-08-13 08:36:00,
2013-08-13 01:41:00,80.1,37.9,29.97,East,85,0.0,0.0,22,0.00,,---,0.00,VWS V14.01,2013-08-13 08:41:00,
2013-08-13 01:46:00,79.9,39.9,29.97,East,85,0.0,0.0,24,0.00,,---,0.00,VWS V14.01,2013-08-13 08:46:00,
2013-08-13 01:51:00,79.5,39.6,29.97,East,85,0.0,0.0,24,0.00,,---,0.00,VWS V14.01,2013-08-13 08:51:00,
2013-08-13 01:56:00,79.1,39.2,29.98,East,85,0.0,0.0,24,0.00,,---,0.00,VWS V14.01,2013-08-13 08:56:00,
2013-08-13 02:01:00,78.6,38.8,29.98,East,85,0.0,0.0,24,0.00,,---,0.00,VWS V14.01,2013-08-13 09:01:00,
2013-08-13 02:06:00,78.2,39.5,29.98,East,85,0.0,0.0,25,0.00,,---,0.00,VWS V14.01,2013-08-13 09:06:00,
2013-08-13 02:11:00,77.9,40.3,29.98,East,85,0.0,0.0,26,0.00,,---,0.00,VWS V14.01,2013-08-13 09:11:00,
2013-08-13 02:16:00,77.5,40.9,29.98,East,85,0.0,0.0,27,0.00,,---,0.00,VWS V14.01,2013-08-13 09:16:00,
2013-08-13 02:21:00,77.1,41.5,29.98,East,85,0.0,0.0,28,0.00,,---,0.00,VWS V14.01,2013-08-13 09:21:00,
2013-08-13 02:26:00,76.8,43.0,29.97,East,85,0.0,0.0,30,0.00,,---,0.00,VWS V14.01,2013-08-13 09:26:00,
2013-08-13 02:31:00,76.9,43.1,29.97,East,85,0.0,0.0,30,0.00,,---,0.00,VWS V14.01,2013-08-13 09:31:00,
2013-08-13 02:36:00,76.9,43.1,29.97,East,85,0.0,0.0,30,0.00,,---,0.00,VWS V14.01,2013-08-13 09:36:00,
2013-08-13 02:41:00,76.9,41.3,29.97,East,85,0.0,0.0,28,0.00,,---,0.00,VWS V14.01,2013-08-13 09:41:00,
2013-08-13 02:46:00,76.8,43.0,29.97,East,85,0.0,0.0,30,0.00,,---,0.00,VWS V14.01,2013-08-13 09:46:00,
2013-08-13 02:51:00,76.5,43.7,29.97,East,85,0.0,0.0,31,0.00,,---,0.00,VWS V14.01,2013-08-13 09:51:00,
2013-08-13 02:56:00,76.1,44.1,29.97,East,85,0.0,0.0,32,0.00,,---,0.00,VWS V14.01,2013-08-13 09:56:00,
2013-08-13 03:01:00,75.7,43.8,29.97,East,85,0.0,0.0,32,0.00,,---,0.00,VWS V14.01,2013-08-13 10:01:00,
2013-08-13 03:06:00,75.2,43.3,29.97,East,85,0.0,0.0,32,0.00,,---,0.00,VWS V14.01,2013-08-13 10:06:00,
2013-08-13 03:11:00,74.8,43.8,29.97,East,85,0.0,0.0,33,0.00,,---,0.00,VWS V14.01,2013-08-13 10:11:00,
2013-08-13 03:16:00,74.4,41.8,29.98,East,85,0.0,0.0,31,0.00,,---,0.00,VWS V14.01,2013-08-13 10:16:00,
2013-08-13 03:21:00,74.4,42.7,29.98,East,85,0.0,0.0,32,0.00,,---,0.00,VWS V14.01,2013-08-13 10:21:00,
2013-08-13 03:26:00,74.3,43.4,29.98,East,85,0.0,0.0,33,0.00,,---,0.00,VWS V14.01,2013-08-13 10:26:00,
2013-08-13 03:31:00,74.0,43.1,29.98,East,85,0.0,0.0,33,0.00,,---,0.00,VWS V14.01,2013-08-13 10:31:00,
2013-08-13 03:36:00,73.8,42.9,29.97,East,85,0.0,0.0,33,0.00,,---,0.00,VWS V14.01,2013-08-13 10:36:00,
2013-08-13 03:41:00,73.5,44.2,29.98,East,85,0.0,0.0,35,0.00,,---,0.00,VWS V14.01,2013-08-13 10:41:00,
2013-08-13 03:46:00,73.1,44.6,29.98,East,85,0.0,0.0,36,0.00,,---,0.00,VWS V14.01,2013-08-13 10:46:00,
2013-08-13 03:51:00,72.6,43.4,29.97,East,85,0.0,0.0,35,0.00,,---,0.00,VWS V14.01,2013-08-13 10:51:00,
2013-08-13 03:56:00,72.3,44.6,29.97,East,85,0.0,0.0,37,0.00,,---,0.00,VWS V14.01,2013-08-13 10:56:00,
2013-08-13 04:01:00,71.9,44.2,29.97,East,85,0.0,0.0,37,0.00,,---,0.00,VWS V14.01,2013-08-13 11:01:00,
2013-08-13 04:06:00,71.7,43.3,29.97,East,85,0.0,0.0,36,0.00,,---,0.00,VWS V14.01,2013-08-13 11:06:00,
2013-08-13 04:11:00,71.5,43.9,29.97,East,85,0.0,0.0,37,0.00,,---,0.00,VWS V14.01,2013-08-13 11:11:00,
2013-08-13 04:16:00,71.3,43.0,29.97,East,85,0.0,0.0,36,0.00,,---,0.00,VWS V14.01,2013-08-13 11:16:00,
2013-08-13 04:21:00,71.3,43.0,29.97,East,85,0.0,0.0,36,0.00,,---,0.00,VWS V14.01,2013-08-13 11:21:00,
2013-08-13 04:26:00,71.4,42.3,29.97,East,85,0.0,0.0,35,0.00,,---,0.00,VWS V14.01,2013-08-13 11:26:00,
2013-08-13 04:31:00,71.6,43.3,29.97,East,85,0.0,0.0,36,0.00,,---,0.00,VWS V14.01,2013-08-13 11:31:00,
2013-08-13 04:36:00,71.8,42.7,29.97,East,85,0.0,0.0,35,0.00,,---,0.00,VWS V14.01,2013-08-13 11:36:00,
2013-08-13 04:41:00,71.8,43.4,29.97,East,85,0.0,0.0,36,0.00,,---,0.00,VWS V14.01,2013-08-13 11:41:00,
2013-08-13 04:46:00,71.5,43.9,29.97,East,85,0.0,0.0,37,0.00,,---,0.00,VWS V14.01,2013-08-13 11:46:00,
2013-08-13 04:51:00,71.1,43.5,29.98,East,85,0.0,0.0,37,0.00,,---,0.00,VWS V14.01,2013-08-13 11:51:00,
2013-08-13 04:56:00,70.9,44.0,29.98,East,85,0.0,0.0,38,0.00,,---,0.00,VWS V14.01,2013-08-13 11:56:00,
2013-08-13 05:01:00,70.8,45.3,29.98,East,85,0.0,0.0,40,0.00,,---,0.00,VWS V14.01,2013-08-13 12:01:00,
2013-08-13 05:06:00,70.7,45.2,29.98,East,85,0.0,0.0,40,0.00,,---,0.00,VWS V14.01,2013-08-13 12:06:00,
2013-08-13 05:11:00,70.6,44.5,29.99,East,85,0.0,0.0,39,0.00,,---,0.00,VWS V14.01,2013-08-13 12:11:00,
2013-08-13 05:16:00,70.6,45.1,29.99,East,85,0.0,0.0,40,0.00,,---,0.00,VWS V14.01,2013-08-13 12:16:00,
2013-08-13 05:21:00,70.5,45.7,29.99,East,85,0.0,0.0,41,0.00,,---,0.00,VWS V14.01,2013-08-13 12:21:00,
2013-08-13 05:26:00,70.4,45.0,29.99,East,85,0.0,0.0,40,0.00,,---,0.00,VWS V14.01,2013-08-13 12:26:00,
2013-08-13 05:31:00,70.3,44.2,30.00,East,85,0.0,0.0,39,0.00,,---,0.00,VWS V14.01,2013-08-13 12:31:00,
2013-08-13 05:36:00,70.3,44.2,30.00,East,85,0.0,0.0,39,0.00,,---,0.00,VWS V14.01,2013-08-13 12:36:00,
2013-08-13 05:41:00,70.1,44.0,30.00,East,85,0.0,0.0,39,0.00,,---,0.00,VWS V14.01,2013-08-13 12:41:00,
2013-08-13 05:46:00,70.0,42.6,30.00,East,85,0.0,0.0,37,0.00,,---,0.00,VWS V14.01,2013-08-13 12:46:00,
2013-08-13 05:51:00,69.9,44.5,30.00,East,85,0.0,0.0,40,0.00,,---,0.00,VWS V14.01,2013-08-13 12:51:00,
2013-08-13 05:56:00,69.7,44.3,30.01,East,85,0.0,0.0,40,0.00,,---,0.00,VWS V14.01,2013-08-13 12:56:00,
2013-08-13 06:01:00,69.7,45.0,30.01,East,85,0.0,0.0,41,0.00,,---,0.00,VWS V14.01,2013-08-13 13:01:00,
2013-08-13 06:06:00,69.8,45.7,30.01,East,85,0.0,0.0,42,0.00,,---,0.00,VWS V14.01,2013-08-13 13:06:00,
2013-08-13 06:11:00,70.0,45.9,30.01,East,85,0.0,0.0,42,0.00,,---,0.00,VWS V14.01,2013-08-13 13:11:00,
2013-08-13 06:16:00,70.3,46.2,30.02,East,85,0.0,0.0,42,0.00,,---,0.00,VWS V14.01,2013-08-13 13:16:00,
2013-08-13 06:21:00,71.1,45.6,30.02,East,85,0.0,0.0,40,0.00,,---,0.00,VWS V14.01,2013-08-13 13:21:00,
2013-08-13 06:26:00,71.8,45.5,30.02,East,85,0.0,0.0,39,0.00,,---,0.00,VWS V14.01,2013-08-13 13:26:00,
2013-08-13 06:31:00,72.3,45.3,30.02,East,85,0.0,0.0,38,0.00,,---,0.00,VWS V14.01,2013-08-13 13:31:00,
2013-08-13 06:36:00,72.6,47.6,30.02,East,85,0.0,0.0,41,0.00,,---,0.00,VWS V14.01,2013-08-13 13:36:00,
2013-08-13 06:41:00,72.6,47.6,30.02,East,85,0.0,0.0,41,0.00,,---,0.00,VWS V14.01,2013-08-13 13:41:00,
2013-08-13 06:46:00,72.8,49.0,30.03,East,85,0.0,0.0,43,0.00,,---,0.00,VWS V14.01,2013-08-13 13:46:00,
2013-08-13 06:51:00,72.7,49.5,30.02,ENE,61,0.0,1.0,44,0.00,,---,0.00,VWS V14.01,2013-08-13 13:51:00,
2013-08-13 06:56:00,72.7,49.5,30.03,NNE,28,0.0,0.0,44,0.00,,---,0.00,VWS V14.01,2013-08-13 13:56:00,
2013-08-13 07:01:00,72.9,48.5,30.03,NW,311,0.0,1.0,42,0.00,,---,0.00,VWS V14.01,2013-08-13 14:01:00,
2013-08-13 07:06:00,73.3,47.5,30.03,NW,311,0.0,0.0,40,0.00,,---,0.00,VWS V14.01,2013-08-13 14:06:00,
2013-08-13 07:11:00,73.7,48.6,30.03,NW,311,0.0,0.0,41,0.00,,---,0.00,VWS V14.01,2013-08-13 14:11:00,
2013-08-13 07:16:00,74.0,48.8,30.03,NW,311,0.0,0.0,41,0.00,,---,0.00,VWS V14.01,2013-08-13 14:16:00,
2013-08-13 07:21:00,74.8,48.2,30.03,NW,311,0.0,0.0,39,0.00,,---,0.00,VWS V14.01,2013-08-13 14:21:00,
2013-08-13 07:26:00,75.8,47.7,30.03,NW,311,0.0,0.0,37,0.00,,---,0.00,VWS V14.01,2013-08-13 14:26:00,
2013-08-13 07:31:00,77.0,48.0,30.03,NW,311,0.0,1.0,36,0.00,,---,0.00,VWS V14.01,2013-08-13 14:31:00,
2013-08-13 07:36:00,78.1,49.0,30.03,NW,311,0.0,0.0,36,0.00,,---,0.00,VWS V14.01,2013-08-13 14:36:00,
2013-08-13 07:41:00,79.1,50.6,30.03,NW,311,0.0,0.0,37,0.00,,---,0.00,VWS V14.01,2013-08-13 14:41:00,
2013-08-13 07:46:00,79.9,49.0,30.03,NW,311,0.0,0.0,34,0.00,,---,0.00,VWS V14.01,2013-08-13 14:46:00,
2013-08-13 07:51:00,80.9,45.7,30.03,NW,311,0.0,0.0,29,0.00,,---,0.00,VWS V14.01,2013-08-13 14:51:00,
2013-08-13 07:56:00,81.7,47.3,30.03,NW,311,0.0,0.0,30,0.00,,---,0.00,VWS V14.01,2013-08-13 14:56:00,
2013-08-13 08:01:00,82.4,45.1,30.03,NW,311,0.0,0.0,27,0.00,,---,0.00,VWS V14.01,2013-08-13 15:01:00,
2013-08-13 08:06:00,83.2,44.8,30.03,NW,311,0.0,0.0,26,0.00,,---,0.00,VWS V14.01,2013-08-13 15:06:00,
2013-08-13 08:11:00,83.9,45.4,30.03,NW,311,0.0,0.0,26,0.00,,---,0.00,VWS V14.01,2013-08-13 15:11:00,
2013-08-13 08:16:00,84.6,47.9,30.03,NW,311,0.0,0.0,28,0.00,,---,0.00,VWS V14.01,2013-08-13 15:16:00,
2013-08-13 08:21:00,85.2,45.5,30.03,NW,311,0.0,0.0,25,0.00,,---,0.00,VWS V14.01,2013-08-13 15:21:00,
2013-08-13 08:26:00,85.4,43.4,30.03,West,262,0.0,0.0,23,0.00,,---,0.00,VWS V14.01,2013-08-13 15:26:00,
2013-08-13 08:31:00,86.1,46.2,30.03,West,262,0.0,0.0,25,0.00,,---,0.00,VWS V14.01,2013-08-13 15:31:00,
2013-08-13 08:36:00,87.1,44.8,30.03,West,262,0.0,0.0,23,0.00,,---,0.00,VWS V14.01,2013-08-13 15:36:00,
2013-08-13 08:41:00,87.8,43.0,30.03,West,262,0.0,1.0,21,0.00,,---,0.00,VWS V14.01,2013-08-13 15:41:00,
2013-08-13 08:46:00,88.0,44.4,30.04,West,262,0.0,1.0,22,0.00,,---,0.00,VWS V14.01,2013-08-13 15:46:00,
2013-08-13 08:51:00,87.9,43.1,30.03,West,281,0.0,0.0,21,0.00,,---,0.00,VWS V14.01,2013-08-13 15:51:00,
2013-08-13 08:56:00,88.3,44.7,30.03,West,281,0.0,0.0,22,0.00,,---,0.00,VWS V14.01,2013-08-13 15:56:00,
2013-08-13 09:01:00,88.8,45.1,30.03,West,281,0.0,1.0,22,0.00,,---,0.00,VWS V14.01,2013-08-13 16:01:00,
2013-08-13 09:06:00,89.3,44.3,30.03,West,281,0.0,2.0,21,0.00,,---,0.00,VWS V14.01,2013-08-13 16:06:00,
2013-08-13 09:11:00,89.6,44.5,30.03,West,281,1.0,1.0,21,0.00,,---,0.00,VWS V14.01,2013-08-13 16:11:00,
2013-08-13 09:16:00,90.1,42.3,30.03,West,281,0.0,1.0,19,0.00,,---,0.00,VWS V14.01,2013-08-13 16:16:00,
2013-08-13 09:21:00,90.9,41.6,30.03,West,281,0.0,1.0,18,0.00,,---,0.00,VWS V14.01,2013-08-13 16:21:00,
2013-08-13 09:26:00,91.1,40.3,30.03,SW,234,1.0,1.0,17,0.00,,---,0.00,VWS V14.01,2013-08-13 16:26:00,
2013-08-13 09:31:00,91.1,40.3,30.03,SW,217,0.0,1.0,17,0.00,,---,0.00,VWS V14.01,2013-08-13 16:31:00,
2013-08-13 09:36:00,91.3,41.9,30.03,SSW,196,0.0,1.0,18,0.00,,---,0.00,VWS V14.01,2013-08-13 16:36:00,
2013-08-13 09:41:00,91.4,40.5,30.03,SSW,211,0.0,0.0,17,0.00,,---,0.00,VWS V14.01,2013-08-13 16:41:00,
2013-08-13 09:46:00,91.7,42.2,30.03,SW,222,0.0,1.0,18,0.00,,---,0.00,VWS V14.01,2013-08-13 16:46:00,
2013-08-13 09:51:00,91.7,42.2,30.03,WSW,242,0.0,1.0,18,0.00,,---,0.00,VWS V14.01,2013-08-13 16:51:00,
2013-08-13 09:56:00,92.2,42.6,30.03,West,277,0.0,4.0,18,0.00,,---,0.00,VWS V14.01,2013-08-13 16:56:00,
2013-08-13 10:01:00,92.4,42.8,30.03,SSW,205,4.0,6.0,18,0.00,,---,0.00,VWS V14.01,2013-08-13 17:01:00,
2013-08-13 10:06:00,92.2,42.6,30.03,WSW,255,0.0,1.0,18,0.00,,---,0.00,VWS V14.01,2013-08-13 17:06:00,
2013-08-13 10:12:00,92.4,42.8,30.03,WSW,238,1.0,5.0,18,0.00,,---,0.00,VWS V14.01,2013-08-13 17:12:00,
2013-08-13 10:17:00,92.6,41.5,30.03,West,265,1.0,4.0,17,0.00,,---,0.00,VWS V14.01,2013-08-13 17:17:00,
2013-08-13 10:22:00,92.8,38.4,30.03,West,279,0.0,2.0,15,0.00,,---,0.00,VWS V14.01,2013-08-13 17:22:00,
2013-08-13 10:27:00,93.3,40.5,30.02,WNW,290,0.0,1.0,16,0.00,,---,0.00,VWS V14.01,2013-08-13 17:27:00,
2013-08-13 10:32:00,94.5,41.4,30.02,WSW,250,0.0,2.0,16,0.00,,---,0.00,VWS V14.01,2013-08-13 17:32:00,
2013-08-13 10:37:00,94.6,38.1,30.02,WSW,242,1.0,4.0,14,0.00,,---,0.00,VWS V14.01,2013-08-13 17:37:00,
2013-08-13 10:42:00,93.8,39.2,30.02,WSW,240,0.0,3.0,15,0.00,,---,0.00,VWS V14.01,2013-08-13 17:42:00,
2013-08-13 10:47:00,94.3,39.6,30.02,NNE,24,0.0,1.0,15,0.00,,---,0.00,VWS V14.01,2013-08-13 17:47:00,
2013-08-13 10:52:00,94.4,39.7,30.02,South,184,0.0,4.0,15,0.00,,---,0.00,VWS V14.01,2013-08-13 17:52:00,
2013-08-13 10:57:00,94.7,38.2,30.01,West,261,1.0,1.0,14,0.00,,---,0.00,VWS V14.01,2013-08-13 17:57:00,
2013-08-13 11:02:00,94.7,38.2,30.01,West,270,2.0,7.0,14,0.00,,---,0.00,VWS V14.01,2013-08-13 18:02:00,
2013-08-13 11:07:00,95.4,38.7,30.01,WNW,300,1.0,7.0,14,0.00,,---,0.00,VWS V14.01,2013-08-13 18:07:00,
2013-08-13 11:12:00,95.5,38.8,30.01,WSW,244,0.0,6.0,14,0.00,,---,0.00,VWS V14.01,2013-08-13 18:12:00,
2013-08-13 11:17:00,95.6,38.9,30.01,South,175,3.0,8.0,14,0.00,,---,0.00,VWS V14.01,2013-08-13 18:17:00,
2013-08-13 11:22:00,96.8,39.8,30.01,West,259,0.0,5.0,14,0.00,,---,0.00,VWS V14.01,2013-08-13 18:22:00,
2013-08-13 11:27:00,97.0,40.0,30.00,SW,229,2.0,6.0,14,0.00,,---,0.00,VWS V14.01,2013-08-13 18:27:00,
2013-08-13 11:32:00,96.6,37.8,30.00,SW,231,0.0,9.0,13,0.00,,---,0.00,VWS V14.01,2013-08-13 18:32:00,
2013-08-13 11:37:00,97.3,38.3,30.00,WNW,293,5.0,11.0,13,0.00,,---,0.00,VWS V14.01,2013-08-13 18:37:00,
2013-08-13 11:42:00,96.9,38.0,30.00,WNW,289,0.0,7.0,13,0.00,,---,0.00,VWS V14.01,2013-08-13 18:42:00,
2013-08-13 11:47:00,97.3,38.3,30.00,WSW,242,4.0,9.0,13,0.00,,---,0.00,VWS V14.01,2013-08-13 18:47:00,
2013-08-13 11:52:00,97.0,40.0,29.99,WNW,287,1.0,6.0,14,0.00,,---,0.00,VWS V14.01,2013-08-13 18:52:00,
2013-08-13 11:57:00,98.3,39.1,29.99,West,265,1.0,6.0,13,0.00,,---,0.00,VWS V14.01,2013-08-13 18:57:00,
2013-08-13 12:02:00,97.6,40.4,29.99,WSW,250,0.0,5.0,14,0.00,,---,0.00,VWS V14.01,2013-08-13 19:02:00,
2013-08-13 12:07:00,98.0,40.7,29.99,South,177,3.0,7.0,14,0.00,,---,0.00,VWS V14.01,2013-08-13 19:07:00,
2013-08-13 12:12:00,97.1,38.1,29.98,South,191,0.0,5.0,13,0.00,,---,0.00,VWS V14.01,2013-08-13 19:12:00,
2013-08-13 12:17:00,97.4,40.3,29.98,SW,235,0.0,5.0,14,0.00,,---,0.00,VWS V14.01,2013-08-13 19:17:00,
2013-08-13 12:22:00,98.7,41.3,29.98,WNW,298,1.0,7.0,14,0.00,,---,0.00,VWS V14.01,2013-08-13 19:22:00,
2013-08-13 12:27:00,98.8,41.4,29.98,SW,232,3.0,8.0,14,0.00,,---,0.00,VWS V14.01,2013-08-13 19:27:00,
2013-08-13 12:32:00,98.2,40.9,29.98,West,271,3.0,5.0,14,0.00,,---,0.00,VWS V14.01,2013-08-13 19:32:00,
2013-08-13 12:37:00,98.7,39.4,29.97,WNW,288,1.0,3.0,13,0.00,,---,0.00,VWS V14.01,2013-08-13 19:37:00,
2013-08-13 12:42:00,99.0,39.6,29.97,WNW,303,0.0,8.0,13,0.00,,---,0.00,VWS V14.01,2013-08-13 19:42:00,
2013-08-13 12:47:00,98.7,41.3,29.97,WNW,286,0.0,6.0,14,0.00,,---,0.00,VWS V14.01,2013-08-13 19:47:00,
2013-08-13 12:52:00,99.1,41.6,29.97,SW,223,3.0,8.0,14,0.00,,---,0.00,VWS V14.01,2013-08-13 19:52:00,
2013-08-13 12:57:00,99.2,43.5,29.97,South,180,0.0,6.0,15,0.00,,---,0.00,VWS V14.01,2013-08-13 19:57:00,
2013-08-13 13:02:00,98.9,41.5,29.96,WSW,253,4.0,11.0,14,0.00,,---,0.00,VWS V14.01,2013-08-13 20:02:00,
2013-08-13 13:07:00,100.0,40.4,29.96,WNW,284,3.0,4.0,13,0.00,,---,0.00,VWS V14.01,2013-08-13 20:07:00,
2013-08-13 13:12:00,101.4,41.5,29.96,SW,217,0.0,9.0,13,0.00,,---,0.00,VWS V14.01,2013-08-13 20:12:00,
2013-08-13 13:17:00,101.2,39.3,29.96,SSW,203,0.0,7.0,12,0.00,,---,0.00,VWS V14.01,2013-08-13 20:17:00,
2013-08-13 13:23:00,100.0,38.3,29.96,WSW,252,3.0,3.0,12,0.00,,---,0.00,VWS V14.01,2013-08-13 20:23:00,
2013-08-13 13:28:00,101.3,39.3,29.95,West,265,0.0,8.0,12,0.00,,---,0.00,VWS V14.01,2013-08-13 20:28:00,
2013-08-13 13:33:00,101.5,39.5,29.95,SW,235,5.0,6.0,12,0.00,,---,0.00,VWS V14.01,2013-08-13 20:33:00,
2013-08-13 13:38:00,100.8,39.0,29.95,WSW,244,3.0,9.0,12,0.00,,---,0.00,VWS V14.01,2013-08-13 20:38:00,
2013-08-13 13:43:00,101.5,37.3,29.95,West,281,0.0,9.0,11,0.00,,---,0.00,VWS V14.01,2013-08-13 20:43:00,
2013-08-13 13:48:00,101.4,39.4,29.94,West,259,7.0,10.0,12,0.00,,---,0.00,VWS V14.01,2013-08-13 20:48:00,
2013-08-13 13:53:00,101.4,37.2,29.94,SW,225,0.0,12.0,11,0.00,,---,0.00,VWS V14.01,2013-08-13 20:53:00,
2013-08-13 13:58:00,101.4,39.4,29.94,South,174,2.0,7.0,12,0.00,,---,0.00,VWS V14.01,2013-08-13 20:58:00,
2013-08-13 14:03:00,102.2,40.0,29.94,WNW,287,1.0,11.0,12,0.00,,---,0.00,VWS V14.01,2013-08-13 21:03:00,
2013-08-13 14:08:00,102.5,38.0,29.93,WNW,285,0.0,6.0,11,0.00,,---,0.00,VWS V14.01,2013-08-13 21:08:00,
2013-08-13 14:13:00,102.7,40.4,29.93,West,280,6.0,7.0,12,0.00,,---,0.00,VWS V14.01,2013-08-13 21:13:00,
2013-08-13 14:18:00,102.9,40.6,29.93,SW,233,0.0,9.0,12,0.00,,---,0.00,VWS V14.01,2013-08-13 21:18:00,
2013-08-13 14:23:00,102.2,40.0,29.93,WNW,288,4.0,11.0,12,0.00,,---,0.00,VWS V14.01,2013-08-13 21:23:00,
2013-08-13 14:28:00,101.7,39.7,29.92,SSW,201,6.0,9.0,12,0.00,,---,0.00,VWS V14.01,2013-08-13 21:28:00,
2013-08-13 14:33:00,101.4,39.4,29.92,WNW,298,1.0,11.0,12,0.00,,---,0.00,VWS V14.01,2013-08-13 21:33:00,
2013-08-13 14:38:00,101.8,39.7,29.92,West,281,0.0,12.0,12,0.00,,---,0.00,VWS V14.01,2013-08-13 21:38:00,
2013-08-13 14:43:00,102.8,38.3,29.92,WSW,244,7.0,10.0,11,0.00,,---,0.00,VWS V14.01,2013-08-13 21:43:00,
2013-08-13 14:48:00,103.0,40.7,29.92,WSW,252,0.0,7.0,12,0.00,,---,0.00,VWS V14.01,2013-08-13 21:48:00,
2013-08-13 14:53:00,103.4,41.0,29.91,WSW,256,1.0,8.0,12,0.00,,---,0.00,VWS V14.01,2013-08-13 21:53:00,
2013-08-13 14:58:00,103.7,41.2,29.91,South,171,1.0,11.0,12,0.00,,---,0.00,VWS V14.01,2013-08-13 21:58:00,
2013-08-13 15:03:00,103.9,39.1,29.91,West,276,4.0,7.0,11,0.00,,---,0.00,VWS V14.01,2013-08-13 22:03:00,
2013-08-13 15:08:00,104.5,39.6,29.91,WSW,254,9.0,9.0,11,0.00,,---,0.00,VWS V14.01,2013-08-13 22:08:00,
2013-08-13 15:13:00,104.8,39.8,29.91,WNW,299,4.0,8.0,11,0.00,,---,0.00,VWS V14.01,2013-08-13 22:13:00,
2013-08-13 15:17:00,104.5,37.1,29.91,West,269,8.0,8.0,10,0.00,,---,0.00,VWS V14.01,2013-08-13 22:17:00,
2013-08-13 15:22:00,104.6,37.2,29.90,NW,316,9.0,13.0,10,0.00,,---,0.00,VWS V14.01,2013-08-13 22:22:00,
2013-08-13 15:27:00,103.9,36.7,29.90,WSW,257,2.0,10.0,10,0.00,,---,0.00,VWS V14.01,2013-08-13 22:27:00,
2013-08-13 15:32:00,104.1,36.8,29.90,NW,311,8.0,11.0,10,0.00,,---,0.00,VWS V14.01,2013-08-13 22:32:00,
2013-08-13 15:37:00,104.0,36.8,29.90,WNW,302,5.0,13.0,10,0.00,,---,0.00,VWS V14.01,2013-08-13 22:37:00,
2013-08-13 15:42:00,104.2,36.9,29.90,WNW,287,7.0,13.0,10,0.00,,---,0.00,VWS V14.01,2013-08-13 22:42:00,
2013-08-13 15:47:00,103.9,36.7,29.89,WNW,290,4.0,12.0,10,0.00,,---,0.00,VWS V14.01,2013-08-13 22:47:00,
2013-08-13 15:52:00,103.9,36.7,29.89,WSW,258,8.0,12.0,10,0.00,,---,0.00,VWS V14.01,2013-08-13 22:52:00,
2013-08-13 15:57:00,103.8,36.6,29.89,West,261,9.0,9.0,10,0.00,,---,0.00,VWS V14.01,2013-08-13 22:57:00,
2013-08-13 16:02:00,103.5,38.8,29.89,WSW,246,9.0,10.0,11,0.00,,---,0.00,VWS V14.01,2013-08-13 23:02:00,
2013-08-13 16:07:00,103.6,36.5,29.89,WSW,247,5.0,12.0,10,0.00,,---,0.00,VWS V14.01,2013-08-13 23:07:00,
2013-08-13 16:12:00,103.5,36.4,29.89,West,277,1.0,8.0,10,0.00,,---,0.00,VWS V14.01,2013-08-13 23:12:00,
2013-08-13 16:17:00,103.8,39.0,29.88,WNW,288,1.0,10.0,11,0.00,,---,0.00,VWS V14.01,2013-08-13 23:17:00,
2013-08-13 16:22:00,103.8,36.6,29.88,WNW,282,1.0,11.0,10,0.00,,---,0.00,VWS V14.01,2013-08-13 23:22:00,
2013-08-13 16:27:00,103.5,38.8,29.88,WNW,290,3.0,10.0,11,0.00,,---,0.00,VWS V14.01,2013-08-13 23:27:00,
2013-08-13 16:32:00,103.7,36.5,29.88,SW,216,4.0,12.0,10,0.00,,---,0.00,VWS V14.01,2013-08-13 23:32:00,
2013-08-13 16:37:00,103.1,38.5,29.88,SW,226,4.0,13.0,11,0.00,,---,0.00,VWS V14.01,2013-08-13 23:37:00,
2013-08-13 16:42:00,102.9,38.3,29.88,West,274,2.0,8.0,11,0.00,,---,0.00,VWS V14.01,2013-08-13 23:42:00,
2013-08-13 16:47:00,103.0,36.0,29.87,WSW,252,9.0,17.0,10,0.00,,---,0.00,VWS V14.01,2013-08-13 23:47:00,
2013-08-13 16:52:00,102.4,38.0,29.87,West,269,0.0,15.0,11,0.00,,---,0.00,VWS V14.01,2013-08-13 23:52:00,
2013-08-13 16:57:00,102.2,37.8,29.87,West,277,0.0,11.0,11,0.00,,---,0.00,VWS V14.01,2013-08-13 23:57:00,
2013-08-13 17:02:00,102.3,37.9,29.87,West,273,4.0,9.0,11,0.00,,---,0.00,VWS V14.01,2013-08-14 00:02:00,
2013-08-13 17:07:00,102.4,38.0,29.87,NW,308,9.0,9.0,11,0.00,,---,0.00,VWS V14.01,2013-08-14 00:07:00,
2013-08-13 17:12:00,102.3,37.9,29.87,West,271,6.0,12.0,11,0.00,,---,0.00,VWS V14.01,2013-08-14 00:12:00,
2013-08-13 17:17:00,101.8,37.5,29.87,West,271,4.0,9.0,11,0.00,,---,0.00,VWS V14.01,2013-08-14 00:17:00,
2013-08-13 17:22:00,101.6,37.3,29.87,West,264,8.0,9.0,11,0.00,,---,0.00,VWS V14.01,2013-08-14 00:22:00,
2013-08-13 17:27:00,101.4,37.2,29.87,West,277,4.0,14.0,11,0.00,,---,0.00,VWS V14.01,2013-08-14 00:27:00,
2013-08-13 17:32:00,101.4,37.2,29.87,West,273,7.0,9.0,11,0.00,,---,0.00,VWS V14.01,2013-08-14 00:32:00,
2013-08-13 17:37:00,101.4,37.2,29.87,WSW,247,2.0,9.0,11,0.00,,---,0.00,VWS V14.01,2013-08-14 00:37:00,
2013-08-13 17:42:00,101.1,39.2,29.86,ESE,120,2.0,10.0,12,0.00,,---,0.00,VWS V14.01,2013-08-14 00:42:00,
2013-08-13 17:47:00,100.8,36.7,29.86,WNW,288,5.0,9.0,11,0.00,,---,0.00,VWS V14.01,2013-08-14 00:47:00,
2013-08-13 17:48:00,100.8,36.7,29.86,WSW,251,1.0,9.0,11,0.00,,---,0.00,VWS V14.01,2013-08-14 00:48:00,
2013-08-13 17:53:00,100.5,36.5,29.86,West,267,0.0,8.0,11,0.00,,---,0.00,VWS V14.01,2013-08-14 00:53:00,
2013-08-13 17:58:00,100.2,38.5,29.86,West,261,0.0,7.0,12,0.00,,---,0.00,VWS V14.01,2013-08-14 00:58:00,
2013-08-13 18:03:00,100.1,38.4,29.86,WSW,256,1.0,8.0,12,0.00,,---,0.00,VWS V14.01,2013-08-14 01:03:00,
2013-08-13 18:08:00,100.0,36.1,29.86,West,263,0.0,8.0,11,0.00,,---,0.00,VWS V14.01,2013-08-14 01:08:00,
2013-08-13 18:13:00,99.8,38.2,29.86,West,271,0.0,10.0,12,0.00,,---,0.00,VWS V14.01,2013-08-14 01:13:00,
2013-08-13 18:18:00,99.4,37.9,29.86,WSW,244,5.0,10.0,12,0.00,,---,0.00,VWS V14.01,2013-08-14 01:18:00,
2013-08-13 18:23:00,98.7,37.3,29.86,WSW,244,1.0,11.0,12,0.00,,---,0.00,VWS V14.01,2013-08-14 01:23:00,
2013-08-13 18:28:00,98.3,37.0,29.86,WSW,248,1.0,13.0,12,0.00,,---,0.00,VWS V14.01,2013-08-14 01:28:00,
2013-08-13 18:33:00,98.0,38.8,29.86,WNW,293,1.0,7.0,13,0.00,,---,0.00,VWS V14.01,2013-08-14 01:33:00,
2013-08-13 18:38:00,97.8,36.7,29.86,WSW,256,1.0,7.0,12,0.00,,---,0.00,VWS V14.01,2013-08-14 01:38:00,
2013-08-13 18:43:00,97.5,36.4,29.86,West,267,1.0,7.0,12,0.00,,---,0.00,VWS V14.01,2013-08-14 01:43:00,
2013-08-13 18:48:00,97.3,36.3,29.86,West,263,1.0,3.0,12,0.00,,---,0.00,VWS V14.01,2013-08-14 01:48:00,
2013-08-13 18:53:00,97.0,38.1,29.86,West,270,1.0,8.0,13,0.00,,---,0.00,VWS V14.01,2013-08-14 01:53:00,
2013-08-13 18:58:00,96.6,37.8,29.86,WSW,242,0.0,4.0,13,0.00,,---,0.00,VWS V14.01,2013-08-14 01:58:00,
2013-08-13 19:04:00,96.2,37.4,29.86,WNW,292,3.0,4.0,13,0.00,,---,0.00,VWS V14.01,2013-08-14 02:04:00,
2013-08-13 19:09:00,95.8,39.0,29.86,West,279,0.0,9.0,14,0.00,,---,0.00,VWS V14.01,2013-08-14 02:09:00,
2013-08-13 19:14:00,95.9,37.2,29.87,WSW,248,0.0,4.0,13,0.00,,---,0.00,VWS V14.01,2013-08-14 02:14:00,
2013-08-13 19:19:00,95.9,39.1,29.86,SW,223,0.0,3.0,14,0.00,,---,0.00,VWS V14.01,2013-08-14 02:19:00,
2013-08-13 19:24:00,95.6,40.6,29.87,SW,223,0.0,0.0,15,0.00,,---,0.00,VWS V14.01,2013-08-14 02:24:00,
2013-08-13 19:29:00,95.0,40.2,29.87,SW,223,0.0,0.0,15,0.00,,---,0.00,VWS V14.01,2013-08-14 02:29:00,
2013-08-13 19:34:00,94.1,39.5,29.87,SW,223,0.0,0.0,15,0.00,,---,0.00,VWS V14.01,2013-08-14 02:34:00,
2013-08-13 19:39:00,93.2,40.4,29.87,SW,223,0.0,0.0,16,0.00,,---,0.00,VWS V14.01,2013-08-14 02:39:00,
2013-08-13 19:44:00,92.6,39.9,29.86,SW,223,0.0,0.0,16,0.00,,---,0.00,VWS V14.01,2013-08-14 02:44:00,
2013-08-13 19:49:00,92.1,42.5,29.87,WNW,282,0.0,1.0,18,0.00,,---,0.00,VWS V14.01,2013-08-14 02:49:00,
2013-08-13 20:15:00,91.1,40.3,29.89,ENE,63,0.0,0.0,17,0.00,,---,0.00,VWS V14.01,2013-08-14 03:15:00,
2013-08-13 20:20:00,90.9,41.6,29.89,ENE,57,0.0,3.0,18,0.00,,---,0.00,VWS V14.01,2013-08-14 03:20:00,
2013-08-13 20:25:00,90.8,40.0,29.89,ENE,73,0.0,0.0,17,0.00,,---,0.00,VWS V14.01,2013-08-14 03:25:00,
2013-08-13 20:30:00,90.7,39.9,29.90,ENE,73,0.0,0.0,17,0.00,,---,0.00,VWS V14.01,2013-08-14 03:30:00,
2013-08-13 20:35:00,90.4,39.7,29.90,ENE,73,0.0,0.0,17,0.00,,---,0.00,VWS V14.01,2013-08-14 03:35:00,
2013-08-13 20:40:00,90.1,39.5,29.90,ENE,74,0.0,0.0,17,0.00,,---,0.00,VWS V14.01,2013-08-14 03:40:00,
2013-08-13 20:45:00,89.8,40.7,29.90,ENE,76,0.0,0.0,18,0.00,,---,0.00,VWS V14.01,2013-08-14 03:45:00,
2013-08-13 20:50:00,89.4,40.4,29.91,NE,55,0.0,0.0,18,0.00,,---,0.00,VWS V14.01,2013-08-14 03:50:00,
2013-08-13 20:55:00,89.1,41.5,29.91,ENE,67,0.0,1.0,19,0.00,,---,0.00,VWS V14.01,2013-08-14 03:55:00,
2013-08-13 21:00:00,89.0,40.0,29.91,ENE,78,0.0,0.0,18,0.00,,---,0.00,VWS V14.01,2013-08-14 04:00:00,
2013-08-13 21:01:00,89.0,40.0,29.91,ENE,78,0.0,1.0,18,0.00,,---,0.00,VWS V14.01,2013-08-14 04:01:00,
2013-08-13 21:02:00,89.0,42.8,29.91,ENE,78,0.0,1.0,20,0.00,,---,0.00,VWS V14.01,2013-08-14 04:02:00,
2013-08-13 21:07:00,88.9,41.3,29.91,ENE,78,0.0,1.0,19,0.00,,---,0.00,VWS V14.01,2013-08-14 04:07:00,
2013-08-13 21:12:00,88.7,39.8,29.92,ENE,78,0.0,0.0,18,0.00,,---,0.00,VWS V14.01,2013-08-14 04:12:00,
2013-08-13 21:17:00,88.6,39.7,29.92,ENE,78,0.0,1.0,18,0.00,,---,0.00,VWS V14.01,2013-08-14 04:17:00,
2013-08-13 21:22:00,88.3,40.9,29.92,ENE,78,0.0,0.0,19,0.00,,---,0.00,VWS V14.01,2013-08-14 04:22:00,
2013-08-13 21:27:00,87.9,41.9,29.92,ENE,78,0.0,0.0,20,0.00,,---,0.00,VWS V14.01,2013-08-14 04:27:00,
2013-08-13 21:32:00,87.5,41.5,29.93,ENE,78,0.0,0.0,20,0.00,,---,0.00,VWS V14.01,2013-08-14 04:32:00,
2013-08-13 21:37:00,87.0,42.4,29.92,ENE,78,0.0,0.0,21,0.00,,---,0.00,VWS V14.01,2013-08-14 04:37:00,
2013-08-13 21:42:00,86.7,43.3,29.92,ENE,78,0.0,0.0,22,0.00,,---,0.00,VWS V14.01,2013-08-14 04:42:00,
2013-08-13 21:47:00,86.4,45.4,29.92,ENE,78,0.0,0.0,24,0.00,,---,0.00,VWS V14.01,2013-08-14 04:47:00,
2013-08-13 21:52:00,86.3,40.5,29.92,ENE,78,0.0,0.0,20,0.00,,---,0.00,VWS V14.01,2013-08-14 04:52:00,
2013-08-13 21:57:00,86.3,41.8,29.93,ENE,78,0.0,0.0,21,0.00,,---,0.00,VWS V14.01,2013-08-14 04:57:00,
2013-08-13 22:02:00,86.7,42.1,29.92,ENE,78,0.0,0.0,21,0.00,,---,0.00,VWS V14.01,2013-08-14 05:02:00,
2013-08-13 22:07:00,86.9,41.0,29.92,ENE,78,0.0,0.0,20,0.00,,---,0.00,VWS V14.01,2013-08-14 05:07:00,
2013-08-13 22:12:00,87.1,42.5,29.92,ENE,78,0.0,1.0,21,0.00,,---,0.00,VWS V14.01,2013-08-14 05:12:00,
2013-08-13 22:17:00,87.0,41.1,29.92,ENE,78,0.0,0.0,20,0.00,,---,0.00,VWS V14.01,2013-08-14 05:17:00,
2013-08-13 22:22:00,86.8,42.2,29.92,SE,146,0.0,1.0,21,0.00,,---,0.00,VWS V14.01,2013-08-14 05:22:00,
2013-08-13 22:27:00,86.7,42.1,29.92,SE,146,0.0,0.0,21,0.00,,---,0.00,VWS V14.01,2013-08-14 05:27:00,
2013-08-13 22:32:00,86.3,41.8,29.92,SE,146,0.0,0.0,21,0.00,,---,0.00,VWS V14.01,2013-08-14 05:32:00,
2013-08-13 22:37:00,86.0,42.8,29.92,SE,146,0.0,0.0,22,0.00,,---,0.00,VWS V14.01,2013-08-14 05:37:00,
2013-08-13 22:42:00,85.7,42.5,29.92,SE,146,0.0,1.0,22,0.00,,---,0.00,VWS V14.01,2013-08-14 05:42:00,
2013-08-13 22:47:00,85.2,42.1,29.92,SE,146,0.0,0.0,22,0.00,,---,0.00,VWS V14.01,2013-08-14 05:47:00,
2013-08-13 22:52:00,84.8,44.0,29.93,SE,146,0.0,0.0,24,0.00,,---,0.00,VWS V14.01,2013-08-14 05:52:00,
2013-08-13 22:57:00,84.4,43.7,29.93,SE,146,0.0,0.0,24,0.00,,---,0.00,VWS V14.01,2013-08-14 05:57:00,
2013-08-13 23:01:00,84.3,43.6,29.93,SE,146,0.0,0.0,24,0.00,,---,0.00,VWS V14.01,2013-08-14 06:01:00,
2013-08-13 23:06:00,84.2,44.6,29.93,SE,146,0.0,0.0,25,0.00,,---,0.00,VWS V14.01,2013-08-14 06:06:00,
2013-08-13 23:11:00,83.8,44.3,29.93,SE,146,0.0,0.0,25,0.00,,---,0.00,VWS V14.01,2013-08-14 06:11:00,
2013-08-13 23:16:00,83.4,42.9,29.93,SE,146,0.0,0.0,24,0.00,,---,0.00,VWS V14.01,2013-08-14 06:16:00,
2013-08-13 23:21:00,83.3,41.7,29.93,SE,146,0.0,0.0,23,0.00,,---,0.00,VWS V14.01,2013-08-14 06:21:00,
2013-08-13 23:26:00,83.4,43.9,29.93,SE,146,0.0,0.0,25,0.00,,---,0.00,VWS V14.01,2013-08-14 06:26:00,
2013-08-13 23:31:00,83.4,42.9,29.93,SE,146,0.0,0.0,24,0.00,,---,0.00,VWS V14.01,2013-08-14 06:31:00,
2013-08-13 23:36:00,83.4,41.8,29.93,SE,146,0.0,0.0,23,0.00,,---,0.00,VWS V14.01,2013-08-14 06:36:00,
2013-08-13 23:41:00,83.4,42.9,29.93,SE,146,0.0,0.0,24,0.00,,---,0.00,VWS V14.01,2013-08-14 06:41:00,
2013-08-13 23:46:00,83.2,42.7,29.93,SE,146,0.0,0.0,24,0.00,,---,0.00,VWS V14.01,2013-08-14 06:46:00,
2013-08-13 23:51:00,82.9,42.4,29.93,SE,146,0.0,0.0,24,0.00,,---,0.00,VWS V14.01,2013-08-14 06:51:00,
2013-08-13 23:56:00,82.6,42.2,29.93,SE,146,0.0,0.0,24,0.00,,---,0.00,VWS V14.01,2013-08-14 06:56:00,